Location: Leuk
(46.3174°N, 7.6341°E)
Time: 14:05:17
(UTC+00:00)

IDEFIX/ARIANE 42P - Pass Details

Date: 09 March 2021
Orbit: 784 x 803 km, 98.4° (Epoch: 19 April)

Event Time Altitude Azimuth Distance (km) Brightness Sun altitude
Rises 02:14:44 0° 15° (NNE) 3,299 6.5 -36.4°
Reaches altitude 10° 02:17:05 10° 18° (NNE) 2,363 5.6 -36.1°
Enters shadow 02:19:40 30° 25° (NNE) 1,399 4.2 -35.8°
